Location: Unspecified
(49.2170°N, 0.0000°E)
Time: 06:29:09
(UTC+00:00)

S-56A Canister/Altair - Pass Details

Date: 23 January 2021
Orbit: 631 x 2501 km, 38.9° (Epoch: 02 March)

Event Time Altitude Azimuth Distance (km) Brightness Sun altitude
Exits shadow 03:44:13 11° 120° (ESE) 2,099 10.2 -38.4°
Drops below altitude 10° 03:44:36 10° 117° (ESE) 2,219 10.3 -38.4°
Sets 03:47:47 0° 102° (ESE) 3,347 11.6 -37.9°
